Weather History for MWCR - December, 2013

Change the Weather History Date:

Sunday, December 15, 2013

  Actual Average Record
Temperature  
Mean Temperature 82 °F -  
Max Temperature 87 °F 81 °F 87 °F (2013)
Min Temperature 77 °F 74 °F 66 °F (2010)
Cooling Degree Days 17    
Growing Degree Days 32 (Base 50)    
Moisture  
Dew Point 76 °F    
Average Humidity 81    
Maximum Humidity 91    
Minimum Humidity 63    
Precipitation  
Precipitation 0.00 in - - ()
Sea Level Pressure  
Sea Level Pressure 29.99 in    
Wind  
Wind Speed 8 mph ()    
Max Wind Speed 16 mph    
Max Gust Speed -    
Visibility 6.1 miles    
Events Rain    
Averages and records for this station are not official NWS values.
T = Trace of Precipitation, MM = Missing Value Source: Averaged Metar Reports

Daily Weather History Graph

Daily Weather History Graph

Search for Another Location

Airport or City:

Trip Planner

Search our weather history database for the weather conditions in past years. The results will help you decide how hot, cold, wet, or windy it might be!

Date:

Astronomy

Dec. 15, 2013 Rise Set
Actual Time 6:51 AM EST 5:50 PM EST
Civil Twilight 6:27 AM EST 6:13 PM EST
Nautical Twilight 6:00 AM EST 6:41 PM EST
Astronomical Twilight 5:33 AM EST 7:08 PM EST
Moon 4:45 PM EST (12/15) 5:15 AM EST (12/15)
Length of Visible Light 11h 46m
Length of Day
10h 58m
Waxing Gibbous, 97% of the Moon is Illuminated
Dec 15
Waxing Gibbous
Dec 17
Full
Dec 25
Last Quarter
Jan 1
New
Jan 7
First Quarter

Hourly Weather History & Observations

Time (EST) Temp. Heat Index Dew Point Humidity Pressure Visibility Wind Dir Wind Speed Gust Speed Precip Events Conditions
5:55 AM 78.8 °F - 75.2 °F 89% 29.95 in 6.2 mi East 5.8 mph - N/A   Partly Cloudy
6:52 AM 78.8 °F - 75.2 °F 89% 29.98 in 6.2 mi East 9.2 mph - N/A   Partly Cloudy
7:00 AM 78 °F - 76 °F 91% 29.99 in 6 mi 9.2 mph - -   Scattered Clouds
7:50 AM 78.8 °F - 75.2 °F 89% 30.01 in 5.0 mi SE 9.2 mph - N/A Rain Light Rain Showers
8:58 AM 82.4 °F 90.9 °F 77.0 °F 84% 30.01 in 6.2 mi SE 6.9 mph - N/A   Partly Cloudy
9:50 AM 84.2 °F 94.1 °F 77.0 °F 79% 30.04 in 6.2 mi ESE 15.0 mph - N/A   Partly Cloudy
10:50 AM 86.0 °F 96.9 °F 77.0 °F 74% 30.01 in 6.2 mi ESE 16.1 mph - N/A   Partly Cloudy
11:51 AM 86.0 °F 96.9 °F 77.0 °F 74% 30.01 in 6.2 mi ESE 12.7 mph - N/A   Partly Cloudy
1:00 PM 86 °F - 75 °F 63% 29.99 in 6 mi ESE 11.5 mph - -   Scattered Clouds
1:00 PM 86.0 °F 95.1 °F 75.2 °F 70% 29.98 in 6.2 mi ESE 11.5 mph - N/A   Partly Cloudy
2:00 PM 86.0 °F 96.9 °F 77.0 °F 74% 29.95 in 6.2 mi ESE 11.5 mph - N/A   Partly Cloudy
3:00 PM 86.0 °F 96.9 °F 77.0 °F 74% 29.95 in 6.2 mi ESE 11.5 mph - N/A   Partly Cloudy
4:00 PM 86.0 °F 95.1 °F 75.2 °F 70% 29.95 in 6.2 mi ESE 11.5 mph - N/A   Partly Cloudy
5:00 PM 82.4 °F 90.9 °F 77.0 °F 84% 29.98 in 6.2 mi ESE 9.2 mph - N/A   Partly Cloudy
6:00 PM 82.4 °F 90.9 °F 77.0 °F 84% 29.98 in 6.2 mi East 5.8 mph - N/A   Partly Cloudy
7:00 PM 81 °F - 77 °F 83% 30.01 in 6 mi East 6.9 mph - -   Scattered Clouds
7:00 PM 80.6 °F 87.1 °F 77.0 °F 89% 30.01 in 6.2 mi East 6.9 mph - N/A   Partly Cloudy
8:00 PM 80.6 °F 87.1 °F 77.0 °F 89% 30.01 in 6.2 mi East 6.9 mph - N/A   Partly Cloudy
10:00 PM 80.6 °F 87.1 °F 77.0 °F 89% 30.04 in 6.2 mi East 6.9 mph - N/A   Partly Cloudy